Time,TemperatureF,DewpointF,PressureIn,WindDirection,WindDirectionDegrees,WindSpeedMPH,WindSpeedGustMPH,Humidity,HourlyPrecipIn,Conditions,Clouds,dailyrainin,SoftwareType,DateUTC
2013-11-07 00:23:00,32.0,29.0,30.28,WSW,256,0.0,0.0,90,0.00,,,0.01,,2013-11-07 06:23:00,
2013-11-07 00:52:00,32.0,30.0,30.32,WSW,256,0.0,0.0,91,0.00,,,0.01,,2013-11-07 06:52:00,
2013-11-07 01:22:00,32.0,30.0,30.31,WSW,256,0.0,0.0,91,0.00,,,0.00,,2013-11-07 07:22:00,
2013-11-07 01:42:00,32.0,30.0,30.31,WSW,256,0.0,0.0,92,0.00,,,0.00,,2013-11-07 07:42:00,
2013-11-07 01:52:00,32.0,30.0,30.30,WSW,256,0.0,0.0,92,0.00,,,0.00,,2013-11-07 07:52:00,
2013-11-07 02:22:00,32.0,30.0,30.31,WSW,256,0.0,0.0,92,0.00,,,0.00,,2013-11-07 08:22:00,
2013-11-07 02:42:00,32.0,30.0,30.31,WSW,256,0.0,0.0,92,0.00,,,0.00,,2013-11-07 08:42:00,
2013-11-07 02:52:00,32.0,30.0,30.30,WSW,256,0.0,0.0,92,0.00,,,0.00,,2013-11-07 08:52:00,
2013-11-07 03:22:00,32.0,30.0,30.30,WSW,256,0.0,0.0,92,0.00,,,0.00,,2013-11-07 09:22:00,
2013-11-07 03:42:00,33.0,31.0,30.29,WSW,256,0.0,0.0,92,0.00,,,0.00,,2013-11-07 09:42:00,
2013-11-07 03:53:00,33.0,31.0,30.29,WSW,256,0.0,0.0,92,0.00,,,0.00,,2013-11-07 09:53:00,
2013-11-07 04:23:00,32.0,30.0,30.29,WSW,256,0.0,0.0,92,0.00,,,0.00,,2013-11-07 10:23:00,
2013-11-07 04:42:00,33.0,31.0,30.29,WSW,256,0.0,0.0,92,0.00,,,0.00,,2013-11-07 10:42:00,
2013-11-07 04:52:00,33.0,31.0,30.30,WSW,256,0.0,0.0,92,0.00,,,0.00,,2013-11-07 10:52:00,
2013-11-07 05:22:00,34.0,32.0,30.32,SW,219,0.0,0.0,92,0.00,,,0.00,,2013-11-07 11:22:00,
2013-11-07 05:43:00,34.0,32.0,30.30,SSW,198,0.0,0.0,91,0.00,,,0.00,,2013-11-07 11:43:00,
2013-11-07 05:52:00,34.0,31.0,30.30,SSW,200,0.0,0.0,90,0.00,,,0.00,,2013-11-07 11:52:00,
2013-11-07 06:22:00,34.0,31.0,30.29,SSW,200,0.0,0.0,90,0.00,,,0.00,,2013-11-07 12:22:00,
2013-11-07 06:52:00,34.0,31.0,30.29,SSW,200,0.0,0.0,89,0.00,,,0.00,,2013-11-07 12:52:00,
2013-11-07 07:12:00,33.0,30.0,30.30,SSW,200,0.0,0.0,89,0.00,,,0.00,,2013-11-07 13:12:00,
2013-11-07 07:21:00,33.0,30.0,30.32,SSW,200,0.0,0.0,90,0.00,,,0.00,,2013-11-07 13:21:00,
2013-11-07 07:42:00,33.0,30.0,30.32,SSW,200,0.0,0.0,90,0.00,,,0.00,,2013-11-07 13:42:00,
2013-11-07 07:52:00,32.0,29.0,30.32,SSW,200,0.0,0.0,90,0.00,,,0.00,,2013-11-07 13:52:00,
2013-11-07 08:12:00,33.0,31.0,30.33,SSW,200,0.0,0.0,91,0.00,,,0.00,,2013-11-07 14:12:00,
2013-11-07 08:22:00,33.0,31.0,30.33,SSW,200,0.0,0.0,91,0.00,,,0.00,,2013-11-07 14:22:00,
2013-11-07 08:42:00,34.0,32.0,30.33,SSW,200,0.0,0.0,91,0.00,,,0.00,,2013-11-07 14:42:00,
2013-11-07 08:52:00,36.0,33.0,30.34,SSW,200,0.0,0.0,89,0.00,,,0.00,,2013-11-07 14:52:00,
2013-11-07 09:11:00,38.0,34.0,30.34,SSW,200,0.0,0.0,86,0.01,,,0.01,,2013-11-07 15:11:00,
2013-11-07 09:22:00,40.0,36.0,30.37,SSW,200,0.0,0.0,84,0.01,,,0.01,,2013-11-07 15:22:00,
2013-11-07 09:43:00,41.0,35.0,30.37,SSW,200,0.0,0.0,79,0.01,,,0.01,,2013-11-07 15:43:00,
2013-11-07 09:53:00,42.0,35.0,30.37,WNW,289,0.0,0.0,77,0.01,,,0.01,,2013-11-07 15:53:00,
2013-11-07 10:13:00,43.0,36.0,30.37,NW,313,0.0,0.0,75,0.01,,,0.01,,2013-11-07 16:13:00,
2013-11-07 10:23:00,45.0,37.0,30.37,SW,236,0.0,0.0,72,0.00,,,0.01,,2013-11-07 16:23:00,
2013-11-07 10:42:00,46.0,37.0,30.38,WSW,257,0.0,0.0,70,0.00,,,0.01,,2013-11-07 16:42:00,
2013-11-07 10:52:00,47.0,36.0,30.38,North,355,0.0,0.0,66,0.00,,,0.01,,2013-11-07 16:52:00,
2013-11-07 11:22:00,49.0,36.0,30.37,WNW,287,2.0,2.0,60,0.00,,,0.01,,2013-11-07 17:22:00,
2013-11-07 11:43:00,50.0,35.0,30.37,NW,316,0.0,0.0,56,0.00,,,0.01,,2013-11-07 17:43:00,
2013-11-07 11:52:00,51.0,34.0,30.38,NW,315,3.0,3.0,52,0.00,,,0.01,,2013-11-07 17:52:00,
2013-11-07 12:12:00,52.0,34.0,30.38,NNW,339,2.0,2.0,50,0.00,,,0.01,,2013-11-07 18:12:00,
2013-11-07 12:23:00,52.0,34.0,30.37,NNW,336,4.0,4.0,50,0.00,,,0.01,,2013-11-07 18:23:00,
2013-11-07 12:42:00,53.0,33.0,30.36,WNW,300,6.0,6.0,47,0.00,,,0.01,,2013-11-07 18:42:00,
2013-11-07 12:52:00,53.0,32.0,30.36,WNW,292,2.0,2.0,45,0.00,,,0.01,,2013-11-07 18:52:00,
2013-11-07 13:21:00,54.0,30.0,30.35,WNW,301,2.0,2.0,40,0.00,,,0.01,,2013-11-07 19:21:00,
2013-11-07 13:42:00,54.0,30.0,30.34,North,349,5.0,5.0,39,0.00,,,0.01,,2013-11-07 19:42:00,
2013-11-07 13:52:00,55.0,30.0,30.34,NW,309,1.0,1.0,38,0.00,,,0.01,,2013-11-07 19:52:00,
2013-11-07 14:21:00,56.0,27.0,30.33,NNW,340,6.0,6.0,32,0.00,,,0.01,,2013-11-07 20:21:00,
2013-11-07 14:42:00,56.0,23.0,30.33,NW,326,4.0,4.0,28,0.00,,,0.01,,2013-11-07 20:42:00,
2013-11-07 14:52:00,55.0,23.0,30.33,NNW,340,2.0,2.0,28,0.00,,,0.01,,2013-11-07 20:52:00,
2013-11-07 15:22:00,56.0,23.0,30.32,WNW,294,0.0,0.0,27,0.00,,,0.01,,2013-11-07 21:22:00,
2013-11-07 15:43:00,55.0,23.0,30.31,NNW,331,4.0,4.0,28,0.00,,,0.01,,2013-11-07 21:43:00,
2013-11-07 15:53:00,55.0,23.0,30.32,NNW,345,0.0,0.0,28,0.00,,,0.01,,2013-11-07 21:53:00,
2013-11-07 16:13:00,55.0,22.0,30.32,NNW,340,0.0,0.0,27,0.00,,,0.01,,2013-11-07 22:13:00,
2013-11-07 16:23:00,54.0,21.0,30.32,NNW,338,1.0,1.0,27,0.00,,,0.01,,2013-11-07 22:23:00,
2013-11-07 16:43:00,53.0,21.0,30.32,NW,325,0.0,0.0,28,0.00,,,0.01,,2013-11-07 22:43:00,
2013-11-07 16:53:00,53.0,23.0,30.32,NW,324,0.0,0.0,31,0.00,,,0.01,,2013-11-07 22:53:00,
2013-11-07 17:12:00,52.0,23.0,30.33,NW,324,0.0,0.0,32,0.00,,,0.01,,2013-11-07 23:12:00,
2013-11-07 17:22:00,51.0,24.0,30.33,NW,324,0.0,0.0,34,0.00,,,0.01,,2013-11-07 23:22:00,
2013-11-07 17:43:00,49.0,23.0,30.33,NW,324,0.0,0.0,36,0.00,,,0.01,,2013-11-07 23:43:00,
2013-11-07 17:53:00,47.0,24.0,30.33,NW,324,0.0,0.0,40,0.00,,,0.01,,2013-11-07 23:53:00,
2013-11-07 18:12:00,45.0,25.0,30.33,NW,324,0.0,0.0,45,0.00,,,0.01,,2013-11-08 00:12:00,
2013-11-07 18:22:00,43.0,26.0,30.34,NW,324,0.0,0.0,51,0.00,,,0.01,,2013-11-08 00:22:00,
2013-11-07 18:42:00,41.0,27.0,30.34,NW,324,0.0,0.0,56,0.00,,,0.01,,2013-11-08 00:42:00,
2013-11-07 18:52:00,40.0,28.0,30.31,NW,324,0.0,0.0,61,0.00,,,0.01,,2013-11-08 00:52:00,
2013-11-07 19:22:00,39.0,26.0,30.32,NW,324,0.0,0.0,60,0.00,,,0.01,,2013-11-08 01:22:00,
2013-11-07 19:52:00,37.0,26.0,30.32,NW,324,0.0,0.0,65,0.00,,,0.01,,2013-11-08 01:52:00,
2013-11-07 20:21:00,36.0,27.0,30.32,NW,324,0.0,0.0,69,0.00,,,0.01,,2013-11-08 02:21:00,
2013-11-07 20:42:00,35.0,27.0,30.32,NW,324,0.0,0.0,71,0.00,,,0.01,,2013-11-08 02:42:00,
2013-11-07 20:52:00,34.0,27.0,30.31,NW,324,0.0,0.0,75,0.00,,,0.01,,2013-11-08 02:52:00,
2013-11-07 21:22:00,33.0,27.0,30.31,NW,324,0.0,0.0,79,0.00,,,0.01,,2013-11-08 03:22:00,
2013-11-07 21:44:00,33.0,28.0,30.31,NW,324,0.0,0.0,81,0.00,,,0.01,,2013-11-08 03:44:00,
2013-11-07 21:55:00,33.0,28.0,30.33,NW,324,0.0,0.0,81,0.00,,,0.01,,2013-11-08 03:55:00,
2013-11-07 22:23:00,32.0,28.0,30.34,NW,324,0.0,0.0,84,0.00,,,0.01,,2013-11-08 04:23:00,
2013-11-07 22:43:00,32.0,28.0,30.33,NW,324,0.0,0.0,84,0.00,,,0.01,,2013-11-08 04:43:00,
2013-11-07 22:54:00,32.0,28.0,30.32,NW,324,0.0,0.0,85,0.00,,,0.01,,2013-11-08 04:54:00,
2013-11-07 23:23:00,31.0,27.0,30.32,NW,324,0.0,0.0,85,0.00,,,0.01,,2013-11-08 05:23:00,
2013-11-07 23:43:00,31.0,27.0,30.32,NW,324,0.0,0.0,86,0.00,,,0.01,,2013-11-08 05:43:00,
2013-11-07 23:54:00,30.0,26.0,30.30,NW,324,0.0,0.0,86,0.00,,,0.01,,2013-11-08 05:54:00,